Retour au catalogue

STARLINK-5398

ActifCommunicationsVLEO
NORAD 54866·PAYLOAD·🇺🇸 United States

Lancé Dec 28, 2022 depuis Cape Canaveral Space Force Station

Loading…

Prochains Passages (prochaines 24 heures)

TLE

FraisSource: CelesTrak SupGP

Époque: Sep 15, 2026, 01:43 UTC

1 54866C 22177AY  26258.07201389  .00056114  00000+0  20325-2 0  2589
2 54866  43.0026 131.6536 0001566 270.9259 275.8112 15.27549624    15

Suivez STARLINK-5398 en temps réel avec AllMySat

Download on the App Store